User: anonymous   Login
Location: Unspecified
(43.4680°N, 87.1740°E)
Time: 02:55:38
(UTC+00:00)
Language:

ARIANE 5 R/B - Orbit

View from above orbital plane
View from above orbital plane
View from above satellite
View from above satellite

Ground track
Ground track

The orbit data is extracted from the following two-line orbital elements,

1 27387U 02009B   21164.89833405 -.00000008  00000-0  12511-4 0  9995
2 27387  98.6601 125.1623 0033281 128.6610 231.7562 14.36019654 10714
Epoch (UTC): 13 June 2021 21:33:36
Eccentricity: 0.0033281
inclination: 98.6601°
perigee height: 748 km
apogee height: 795 km
right ascension of ascending node: 125.1623°
argument of perigee: 128.6610°
revolutions per day: 14.36019654
mean anomaly at epoch: 231.7562°
orbit number at epoch: 1071

The dashed part of the orbit path shows where the satellite is in the earth's shadow,  

DLR